Home   Weather   41°17'N, 81°25'W   Past weeks
Flag for USA

Past Weather in 41°17'N, 81°25'W, USA — Yesterday and Last 2 Weeks

Now
78 °F

Passing clouds.


Feels Like: 80 °F
Forecast: 93 / 77 °F
Wind: 7 mph from Southwest

Location: Akron Fulton International Airport

Current Time: Jul 19, 2019 at 4:27:43 am

Latest Report: Jul 19, 2019 at 2:54 am


Visibility: 10 mi

Pressure: 29.90 "Hg

Humidity: 79%

Dew Point: 71 °F

Location of 41°17'N, 81°25'WLocation

Past Weather in 41°17'N, 81°25'W — Graph

°F

41°17'N, 81°25'W Temperature Yesterday

Maximum temperature yesterday: 89 °F (at 3:54 pm)
Minimum temperature yesterday: 70 °F (at 4:17 am)
Average temperature yesterday: 78 °F

High & Low Weather Summary for the Past Weeks

 TemperatureHumidityPressure
High91 °F (Jul 10, 4:54 pm)91% (Jul 7, 4:10 am)30.14 "Hg (Jul 7, 4:10 am)
Low62 °F (Jul 9, 5:54 am)35% (Jul 14, 6:54 pm)29.79 "Hg (Jul 11, 12:54 pm)
Average78 °F71%29.97 "Hg
* Reported Jul 4 2:54 am — Jul 19 2:54 am, 41°17'N, 81°25'W. Weather by CustomWeather, © 2019

Note: Actual official high and low records may vary slightly from our data, if they occured in-between our weather recording intervals... More about our weather records

Advertising

41°17'N, 81°25'W Weather History for the Previous 24 Hours

Scroll right to see more
 ConditionsComfort  
Time TempWeatherWind HumidityBarometerVisibility
2:54 am
Fri, Jul 19
78 °FPassing clouds.7 mph79%29.90 "Hg10 mi
1:54 am79 °FPassing clouds.9 mph79%29.91 "Hg10 mi
12:54 am80 °FOvercast.8 mph79%29.90 "Hg10 mi
11:54 pm
Thu, Jul 18
79 °FClear.8 mph82%29.90 "Hg10 mi
10:54 pm80 °FClear.8 mph76%29.90 "Hg10 mi
9:54 pm81 °FClear.5 mph74%29.88 "Hg10 mi
8:54 pm82 °FClear.5 mph74%29.87 "Hg10 mi
7:54 pm84 °FPassing clouds.7 mph67%29.85 "Hg10 mi
6:54 pm86 °FSunny.6 mph61%29.80 "Hg10 mi
5:54 pm88 °FPassing clouds.12 mph55%29.88 "Hg10 mi
4:54 pm89 °FScattered clouds.7 mph53%29.90 "Hg10 mi
3:54 pm89 °FScattered clouds.N/A50%29.91 "Hg10 mi
2:54 pm88 °FSunny.7 mph54%29.94 "Hg10 mi
1:54 pm88 °FScattered clouds.7 mph55%29.95 "Hg10 mi
12:54 pm87 °FPassing clouds.9 mph53%29.95 "Hg10 mi
11:54 am86 °FSunny.6 mph51%29.93 "Hg10 mi
10:54 am84 °FSunny.5 mph59%29.94 "Hg10 mi
9:54 am80 °FSunny.5 mph62%29.95 "Hg10 mi
8:54 am77 °FSunny.No wind77%29.96 "Hg10 mi
7:54 am72 °FFog.No wind91%29.94 "Hg4 mi
7:25 am72 °FFog.No wind91%29.97 "Hg2 mi
7:13 am72 °FFog.No wind91%29.96 "Hg1 mi
6:54 am72 °FFog.No wind91%29.92 "Hg1 mi
6:38 am71 °FFog.No wind90%29.96 "Hg1 mi
6:12 am72 °FFog.No wind91%29.95 "Hg1 mi
5:54 am72 °FFog.3 mph91%29.92 "Hg1 mi
5:26 am73 °FFog.No wind88%29.94 "Hg1 mi
5:16 am72 °FFog.No wind91%29.95 "Hg2 mi
5:00 am72 °FPassing clouds.No wind87%29.95 "Hg8 mi
4:17 am70 °FPassing clouds.3 mph90%29.95 "Hg10 mi
Weather by CustomWeather, © 2019

See weather overview